Regional Weather Roundup
Issued by NWS Newport/Morehead, NC

Current Version | Previous Version | Text Only | Print | Product List | Glossary On
Versions: 1 2 3 4 5 6 7 8 9 10 11 12 13 14 15 16 17 18 19 20 21 22 23 24 25 26 27 28 29 30 31 32 33 34 35 36 37 38 39 40 41 42 43 44 45 46 47 48 49 50
000 ASUS42 KMHX 290913 RWRMHX WEATHER ROUNDUP FOR EASTERN NORTH CAROLINA NATIONAL WEATHER SERVICE NEWPORT/MOREHEAD CITY NC 500 AM EDT WED MAR 29 2017 NOTE: "FAIR" INDICATES FEW OR NO CLOUDS BELOW 12,000 FEET WITH NO SIGNIFICANT WEATHER AND/OR OBSTRUCTIONS TO VISIBILITY NCZ015>017-031-032-045>047-102-103-291000- NORTH COAST CITY SKY/WX TMP DP RH WIND PRES REMARKS EDENTON CLEAR 56 55 96 CALM 29.95R FOG ELIZABETH CITY PTCLDY 59 56 89 N9 29.94R KITTY HAWK NOT AVBL MANTEO CLEAR 59 58 99 NE13 29.92S $$ NCZ045>047-081-094-103-104-291000- CENTRAL COAST CITY SKY/WX TMP DP RH WIND PRES REMARKS FRISCO CLEAR 61 58 90 NW6 29.92R $$ NCZ095-097-098-100-101-291000- SOUTHERN COAST CITY SKY/WX TMP DP RH WIND PRES REMARKS BEAUFORT CLOUDY 63 63 100 NW7 29.93R CEDAR ISLAND NOT AVBL JACKSONVILLE CLEAR 57 57 100 CALM 29.93R VSB 1 PINEY ISLAND PTSUNNY N/A N/A N/A NW5 29.92R HAZE WILMINGTON PTCLDY 59 58 96 CALM 29.94R $$ NCZ011>013-027>030-043-044-078>080-089-090>093-098-291000- COASTAL PLAIN CITY SKY/WX TMP DP RH WIND PRES REMARKS AHOSKIE N/A 52 52 99 N3 29.96R CLINTON CLEAR 59 57 93 CALM 29.95S ELIZABETHTOWN CLEAR 59 56 89 CALM 29.95S GOLDSBORO PTCLDY 59 59 100 CALM 29.94R GREENVILLE CLEAR 54 54 100 CALM 29.96R HAVELOCK NOT AVBL KENANSVILLE MOCLDY 57 57 100 NW3 29.94S KINSTON PTCLDY 57 57 100 N3 29.95R NEW BERN CLOUDY 54 54 100 NW3 29.94R FOG RICHLANDS MOCLDY 58 57 97 CALM 29.95R ROCKY MOUNT CLEAR 57 54 89 N5 29.96R WASHINGTON FOG 54 54 100 CALM 29.94R VSB 1/4 WHITEVILLE CLEAR 62 53 71 CALM 29.95R $$ AMZ130-135-150-152-154-156-158-170-250-252-270-ANZ085-086-088-633-658-670-291000- MARINE OBSERVATIONS STATION/POSITION TIME TEMP WIND PRES WAVE SWELL AIR SEA DIR/SP/G HT/PER HT/PER (UTC) (F) (DEG/KT/KT) (MB) (FT/S) (FT/S) CHESAPEAKE LIGHT NOT AVBL 64 E VA BEACH 0850 48 48 10/ 17/ 21 1013.3 4/10 3/10 DUCK 0848 53 47 350/ 15/ 16 1013.2 2 E DUCK 0830 49 N/A 2/10 2/11 OREGON INLET 0836 53 59 360/ 8/ 12 1012.8 13E OREGON INLT 0848 52 N/A 4/10 3/10 HATTERAS CG 0848 60 63 310/ 5/ 7 1013.0 DIAMOND BUOY 0850 66 73 340/ 14/ 17 1012.6 5/10 3/10 CAPE LOOKOUT 0800 65 280/ 2/ 3 1012.5 BEAUFORT LAB 0848 61 62 320/ 1/ 2 1012.4 30 SE NEW RVR IN 0808 64 320/ 8/ 10 1013.1 30 SE NEW RVR IN 0843 64 N/A 5/10 2/11 27 SE WRIGHTSVLE 0808 66 69 340/ 10/ 14 1012.3 5 SE WRIGHTSVLE 0808 60 59 360/ 4/ 8 1013.0 225 S CAPE HAT 0750 71 72 220/ 14/ 17 1014.0 6/10 5/10 41 SE CHARLESTON 0850 68 71 250/ 14/ 16 1012.8 5/10 5/10 $$

USA.gov is the U.S. government's official web portal to all federal, state and local government web resources and services.